Regional Weather Roundup
Issued by NWS

Home | Current Version | Previous Version | Graphics & Text | Print | Product List | Glossary On
Versions: 1 2 3 4 5 6 7 8 9 10 11 12 13 14 15 16 17 18 19 20 21 22 23 24 25 26 27 28 29 30 31 32 33 34 35 36 37 38 39 40 41 42 43 44 45 46 47 48 49 50
000
ASUS45 KCYS 010610
RWRWY

WYOMING REGIONAL WEATHER ROUNDUP
NATIONAL WEATHER SERVICE CHEYENNE WY
1200 AM MDT TUE SEP 01 2015

NOTE:  "FAIR" INDICATES FEW OR NO CLOUDS BELOW 12,000 FEET
WITH NO SIGNIFICANT WEATHER AND/OR OBSTRUCTIONS TO VISIBILITY.

WYZ001-010700-
YELLOWSTONE NATIONAL PARK

CITY           SKY/WX    TMP DP  RH WIND       PRES   REMARKS
LK YELLOWSTONE   N/A     38  27  64 NW3       30.23S
6HR MIN TEMP:  38; 6HR MAX TEMP:  63;

W YELLOWSTONE  NOT AVBL

$$
WYZ002>013-054>058-071-098>099-010700-
NORTHERN WYOMING

CITY           SKY/WX    TMP DP  RH WIND       PRES   REMARKS
JACKSON        FAIR      45  30  57 N3        30.14R
CODY           FAIR      70  28  21 SW8       29.99F
GREYBULL       FAIR      66  31  27 SE5       29.90S
6HR MIN TEMP:  66; 6HR MAX TEMP:  87;

WORLAND        FAIR      61  30  31 SW7       29.94R
6HR MIN TEMP:  59; 6HR MAX TEMP:  86;

SHERIDAN       FAIR      52  45  77 CALM      29.94S
6HR MIN TEMP:  51; 6HR MAX TEMP:  83;

BUFFALO        FAIR      62  40  44 W7        30.00F
6HR MIN TEMP:  62; 6HR MAX TEMP:  81;

GILLETTE       FAIR      62  52  69 SE5       29.93S
6HR MIN TEMP:  56; 6HR MAX TEMP:  86;

HULETT         FAIR      59  54  82 NE3       29.96S
NEWCASTLE      FAIR      70  45  40 SE15G21   29.97R

$$
WYZ014>020-022>026-101>103-010700-
CENTRAL WYOMING

CITY           SKY/WX    TMP DP  RH WIND       PRES   REMARKS
BIG PINEY      FAIR      47  22  37 CALM      30.20R
6HR MIN TEMP:  46; 6HR MAX TEMP:  77;

PINEDALE       FAIR      43  30  61 W5        30.21S
DUBOIS         FAIR      48  25  40 W13       30.17S
LANDER         FAIR      64  25  22 SW3       30.05R
6HR MIN TEMP:  62; 6HR MAX TEMP:  85;

RIVERTON       FAIR      65  24  21 SW9       30.05R
6HR MIN TEMP:  63; 6HR MAX TEMP:  85;

CASPER         FAIR      67  39  35 SW18G24   30.04R
6HR MIN TEMP:  67; 6HR MAX TEMP:  83;

DOUGLAS        FAIR      65  40  39 NE6       30.02S
6HR MIN TEMP:  64; 6HR MAX TEMP:  79;


$$
WYZ021-027>030-104>119-010700-
SOUTHERN WYOMING

CITY           SKY/WX    TMP DP  RH WIND       PRES   REMARKS
EVANSTON       FAIR      58  34  40 S7        30.20S
6HR MIN TEMP:  58; 6HR MAX TEMP:  77;

KEMMERER       FAIR      50  28  43 NW6       30.21S
FORT BRIDGER   CLEAR     59  37  44 SW10      30.22F
ROCK SPRINGS   FAIR      61  41  47 S7        30.18R
6HR MIN TEMP:  59; 6HR MAX TEMP:  73;

DIXON          FAIR      53  46  78 CALM      30.24S
RAWLINS        FAIR      61  40  45 SW13      30.18S
6HR MIN TEMP:  59; 6HR MAX TEMP:  68;

SARATOGA       FAIR      54  45  71 SE13      30.23S
LARAMIE        FAIR      51  43  74 S9        30.22S
6HR MIN TEMP:  50; 6HR MAX TEMP:  65; 6HR PCP:  0.12;

CHEYENNE       FAIR      55  46  71 W8        30.15F
6HR MIN TEMP:  55; 6HR MAX TEMP:  68; 6HR PCP: TRACE;

TORRINGTON     FAIR      65  49  56 SW5       30.00F
6HR MIN TEMP:  65; 6HR MAX TEMP:  76;

PINE BLUFFS    FAIR      55  50  82 SW5       30.10F

$$



USA.gov is the U.S. government's official web portal to all federal, state and local government web resources and services.